Weather History for Lincoln, IL

Change the Weather History Date:

Thursday, June 20, 2013

  Actual Average (KSPI) Record (KSPI)
Temperature  
Mean Temperature 78 °F 74 °F  
Max Temperature 91 °F 84 °F 102 °F (1953)
Min Temperature 66 °F 63 °F 46 °F (1980)
Degree Days  
Heating Degree Days 0 0  
Month to date heating degree days 11  
Since 1 June heating degree days 11  
Since 1 July heating degree days 5481  
Cooling Degree Days 14 9  
Month to date cooling degree days 140  
Year to date cooling degree days 244  
Since 1 June cooling degree days 140  
Growing Degree Days 28 (Base 50)    
Moisture  
Dew Point 62 °F    
Average Humidity 58    
Maximum Humidity 92    
Minimum Humidity 32    
Precipitation  
Precipitation 0.00 in 0.16 in 4.02 in (1990)
Month to date precipitation 3.07  
Year to date precipitation 17.08  
Snow  
Snow 0.00 in 0.00 in 0.00 in ()
Month to date snowfall 0.0  
Since 1 June snowfall 0.0  
Since 1 July snowfall 20.9  
Snow Depth -    
Sea Level Pressure  
Sea Level Pressure 30.08 in    
Wind  
Wind Speed 3 mph (SSE)    
Max Wind Speed 12 mph    
Max Gust Speed 17 mph    
Visibility 9 miles    
Events      
T = Trace of Precipitation, MM = Missing Value Source: NWS Daily Summary

Daily Weather History Graph

Daily Weather History Graph

Search for Another Location

Airport:

Trip Planner

Search our weather history database for the weather conditions in past years. The results will help you decide how hot, cold, wet, or windy it might be!

Date:

Astronomy

Jun. 20, 2013 Rise Set
Actual Time 5:28 AM CDT 8:30 PM CDT
Civil Twilight 4:55 AM CDT 9:03 PM CDT
Nautical Twilight 4:13 AM CDT 9:44 PM CDT
Astronomical Twilight 3:23 AM CDT 10:34 PM CDT
Moon 5:32 PM CDT (6/20) 2:54 AM CDT (6/20)
Length of Visible Light 16h 08m
Length of Day
15h 02m
Waxing Gibbous, 89% of the Moon is Illuminated
Jun 20
Waxing Gibbous
Jun 23
Full
Jun 29
Last Quarter
Jul 8
New
Jul 15
First Quarter

Hourly Weather History & Observations

Time (CDT) Temp. Heat Index Dew Point Humidity Pressure Visibility Wind Dir Wind Speed Gust Speed Precip Events Conditions
12:15 AM 71.8 °F - 60.1 °F 67% 30.06 in 10.0 mi Calm Calm - N/A   Clear
12:35 AM 71.1 °F - 61.9 °F 73% 30.06 in 10.0 mi Calm Calm - N/A   Clear
12:55 AM 70.7 °F - 62.6 °F 75% 30.06 in 10.0 mi Calm Calm - N/A   Clear
1:15 AM 70.7 °F - 63.0 °F 76% 30.07 in 10.0 mi Calm Calm - N/A   Clear
1:35 AM 70.3 °F - 63.1 °F 78% 30.06 in 10.0 mi Calm Calm - N/A   Clear
1:55 AM 68.9 °F - 63.0 °F 81% 30.06 in 10.0 mi Calm Calm - N/A   Clear
2:15 AM 69.8 °F - 63.9 °F 81% 30.06 in 10.0 mi Calm Calm - N/A   Clear
2:35 AM 69.8 °F - 64.0 °F 82% 30.07 in 10.0 mi Calm Calm - N/A   Clear
2:55 AM 69.3 °F - 64.6 °F 85% 30.07 in 10.0 mi East 3.5 mph - N/A   Clear
3:15 AM 69.1 °F - 64.9 °F 87% 30.08 in 10.0 mi Calm Calm - N/A   Clear
3:35 AM 68.9 °F - 64.8 °F 87% 30.08 in 7.0 mi East 3.5 mph - N/A   Clear
3:55 AM 68.4 °F - 64.6 °F 88% 30.08 in 7.0 mi East 3.5 mph - N/A   Clear
4:15 AM 68.4 °F - 64.8 °F 88% 30.09 in 7.0 mi East 3.5 mph - N/A   Clear
4:35 AM 68.0 °F - 64.6 °F 89% 30.08 in 7.0 mi East 3.5 mph - N/A   Clear
4:55 AM 67.3 °F - 64.6 °F 91% 30.09 in 5.0 mi Calm Calm - N/A   Clear
5:15 AM 67.1 °F - 64.4 °F 91% 30.09 in 5.0 mi Calm Calm - N/A   Clear
5:35 AM 66.7 °F - 64.4 °F 92% 30.10 in 5.0 mi Calm Calm - N/A   Clear
5:55 AM 66.9 °F - 64.4 °F 92% 30.10 in 4.0 mi Calm Calm - N/A   Clear
6:15 AM 67.1 °F - 64.6 °F 92% 30.10 in 3.0 mi Calm Calm - N/A   Clear
6:35 AM 68.0 °F - 65.1 °F 90% 30.10 in 4.0 mi Calm Calm - N/A   Clear
6:55 AM 70.2 °F - 66.2 °F 87% 30.10 in 4.0 mi Calm Calm - N/A   Clear
7:15 AM 72.5 °F - 66.6 °F 82% 30.11 in 7.0 mi Calm Calm - N/A   Clear
7:35 AM 73.8 °F - 66.7 °F 79% 30.12 in 7.0 mi SSE 3.5 mph - N/A   Clear
7:55 AM 75.0 °F - 66.7 °F 75% 30.12 in 10.0 mi SSE 5.8 mph - N/A   Clear
8:15 AM 76.3 °F - 66.6 °F 72% 30.12 in 10.0 mi SSE 4.6 mph - N/A   Clear
8:35 AM 78.1 °F - 66.4 °F 67% 30.12 in 10.0 mi SSE 5.8 mph - N/A   Clear
8:55 AM 79.7 °F - 66.0 °F 63% 30.12 in 10.0 mi SSE 5.8 mph - N/A   Clear
9:15 AM 81.0 °F 83.2 °F 66.2 °F 61% 30.13 in 10.0 mi South 3.5 mph - N/A   Clear
9:35 AM 82.4 °F 84.2 °F 65.3 °F 56% 30.12 in 10.0 mi South 4.6 mph - N/A   Clear
9:55 AM 83.5 °F 85.7 °F 66.2 °F 56% 30.12 in 10.0 mi South 5.8 mph - N/A   Clear
10:15 AM 84.0 °F 85.8 °F 65.1 °F 53% 30.12 in 10.0 mi South 5.8 mph - N/A   Clear
10:35 AM 85.6 °F 86.8 °F 64.0 °F 48% 30.11 in 10.0 mi SSE 8.1 mph - N/A   Scattered Clouds
10:55 AM 85.6 °F 85.4 °F 60.4 °F 42% 30.11 in 10.0 mi SSW 6.9 mph 17.3 mph N/A   Scattered Clouds
11:15 AM 85.3 °F 85.4 °F 61.2 °F 44% 30.11 in 10.0 mi South 9.2 mph - N/A   Clear
11:35 AM 86.5 °F 86.1 °F 59.4 °F 40% 30.11 in 10.0 mi South 9.2 mph - N/A   Clear
11:55 AM 87.1 °F 86.5 °F 59.0 °F 39% 30.10 in 10.0 mi SSW 5.8 mph - N/A   Scattered Clouds
12:15 PM 87.6 °F 86.7 °F 58.1 °F 37% 30.10 in 10.0 mi SSE 6.9 mph - N/A   Scattered Clouds
12:35 PM 88.2 °F 87.3 °F 58.5 °F 37% 30.10 in 10.0 mi South 8.1 mph - N/A   Scattered Clouds
12:55 PM 89.1 °F 88.5 °F 59.5 °F 37% 30.10 in 10.0 mi SSW 5.8 mph - N/A   Scattered Clouds
1:15 PM 88.2 °F 87.6 °F 59.5 °F 38% 30.09 in 10.0 mi South 5.8 mph 16.1 mph N/A   Scattered Clouds
1:35 PM 88.9 °F 88.3 °F 59.7 °F 37% 30.08 in 10.0 mi South 9.2 mph - N/A   Scattered Clouds
1:55 PM 88.9 °F 88.0 °F 58.8 °F 36% 30.08 in 10.0 mi SSW 6.9 mph - N/A   Scattered Clouds
2:15 PM 89.4 °F 88.7 °F 59.0 °F 36% 30.07 in 10.0 mi South 4.6 mph - N/A   Scattered Clouds
2:35 PM 90.5 °F 89.5 °F 58.8 °F 34% 30.07 in 10.0 mi South 9.2 mph - N/A   Scattered Clouds
2:55 PM 90.1 °F 88.8 °F 57.6 °F 33% 30.07 in 10.0 mi South 4.6 mph - N/A   Scattered Clouds
3:15 PM 90.5 °F 89.3 °F 57.7 °F 33% 30.06 in 10.0 mi South 6.9 mph - N/A   Clear
3:35 PM 91.2 °F 90.2 °F 58.1 °F 33% 30.06 in 10.0 mi SSE 6.9 mph - N/A   Scattered Clouds
3:55 PM 91.2 °F 89.9 °F 57.7 °F 32% 30.06 in 10.0 mi SE 8.1 mph - N/A   Mostly Cloudy
4:15 PM 90.5 °F 89.3 °F 57.9 °F 33% 30.05 in 10.0 mi SSE 11.5 mph 16.1 mph N/A   Scattered Clouds
4:35 PM 90.3 °F 89.0 °F 57.6 °F 33% 30.05 in 10.0 mi South 10.4 mph - N/A   Clear
4:55 PM 89.8 °F 88.6 °F 58.3 °F 34% 30.05 in 10.0 mi SSE 9.2 mph 16.1 mph N/A   Scattered Clouds
5:15 PM 89.2 °F 87.9 °F 57.7 °F 34% 30.05 in 10.0 mi SSE 8.1 mph - N/A   Clear
5:35 PM 90.1 °F 88.8 °F 57.2 °F 33% 30.04 in 10.0 mi SE 9.2 mph - N/A   Clear
5:55 PM 89.8 °F 88.6 °F 57.7 °F 34% 30.04 in 10.0 mi SSE 11.5 mph 16.1 mph N/A   Clear
6:15 PM 89.6 °F 88.4 °F 57.6 °F 34% 30.04 in 10.0 mi SSE 9.2 mph - N/A   Clear
6:35 PM 89.1 °F 88.0 °F 57.7 °F 35% 30.04 in 10.0 mi South 10.4 mph 16.1 mph N/A   Clear
6:55 PM 88.3 °F 87.1 °F 57.7 °F 35% 30.04 in 10.0 mi SSE 9.2 mph - N/A   Clear
7:15 PM 87.8 °F 87.1 °F 59.2 °F 38% 30.04 in 10.0 mi SSE 8.1 mph - N/A   Clear
7:35 PM 86.2 °F 85.6 °F 59.4 °F 40% 30.04 in 10.0 mi SSE 8.1 mph - N/A   Clear
7:55 PM 84.7 °F 84.8 °F 60.8 °F 44% 30.04 in 10.0 mi SSE 8.1 mph - N/A   Clear
8:15 PM 83.3 °F 83.7 °F 61.2 °F 47% 30.04 in 10.0 mi SSE 4.6 mph - N/A   Clear
8:35 PM 81.7 °F 82.4 °F 61.2 °F 50% 30.04 in 10.0 mi SSE 6.9 mph - N/A   Clear
8:55 PM 80.2 °F 81.2 °F 61.2 °F 52% 30.05 in 10.0 mi SSE 5.8 mph - N/A   Clear
9:15 PM 79.2 °F - 61.2 °F 54% 30.06 in 10.0 mi SE 4.6 mph - N/A   Clear
9:35 PM 78.8 °F - 61.7 °F 56% 30.06 in 10.0 mi SSE 4.6 mph - N/A   Clear
9:55 PM 77.5 °F - 62.1 °F 59% 30.07 in 10.0 mi SSE 4.6 mph - N/A   Clear
10:15 PM 77.0 °F - 62.6 °F 61% 30.08 in 10.0 mi Calm Calm - N/A   Clear
10:35 PM 76.5 °F - 62.8 °F 62% 30.08 in 10.0 mi Calm Calm - N/A   Clear
10:55 PM 75.7 °F - 63.0 °F 64% 30.08 in 10.0 mi Calm Calm - N/A   Clear
11:15 PM 75.2 °F - 62.8 °F 65% 30.08 in 10.0 mi SSE 4.6 mph - N/A   Clear
11:35 PM 75.4 °F - 63.0 °F 65% 30.09 in 10.0 mi SSE 4.6 mph - N/A   Clear
11:55 PM 75.2 °F - 63.0 °F 66% 30.08 in 10.0 mi SSE 4.6 mph - N/A   Clear